| time (UTC) | temp F | wind direction | speed MPH | gust MPH | rain 1hr in | rain 24hr in | rain mn in | humidity % | barometer mb |
| 20260506164529 | 47 | 150 | 0.0 | 4.0 | 0.00 | 0.00 | 0.00 | 38 | 1019.5 |
| 20260506163027 | 46 | 196 | 0.0 | 3.0 | 0.00 | 0.00 | 0.00 | 40 | 1019.5 |
| 20260506161527 | 46 | 222 | 0.0 | 3.0 | 0.00 | 0.00 | 0.00 | 41 | 1019.8 |
| 20260506160027 | 45 | 159 | 0.0 | 0.0 | 0.00 | 0.00 | 0.00 | 42 | 1020.1 |
| 20260506154514 | 45 | 60 | 0.0 | 1.0 | 0.00 | 0.00 | 0.00 | 44 | 1020.2 |
| 20260506153013 | 44 | 196 | 0.0 | 0.0 | 0.00 | 0.00 | 0.00 | 46 | 1020.5 |
| 20260506151513 | 43 | 197 | 0.0 | 0.0 | 0.00 | 0.00 | 0.00 | 49 | 1020.7 |
| 20260506150013 | 41 | 200 | 0.0 | 2.0 | 0.00 | 0.00 | 0.00 | 50 | 1020.8 |
| 20260506144525 | 39 | 202 | 0.0 | 0.0 | 0.00 | 0.00 | 0.00 | 57 | 1021.0 |
| 20260506143012 | 37 | 238 | 0.0 | 0.0 | 0.00 | 0.00 | 0.00 | 61 | 1021.2 |
| 20260506141512 | 35 | 238 | 0.0 | 0.0 | 0.00 | 0.00 | 0.00 | 65 | 1021.4 |
| 20260506140011 | 33 | 238 | 0.0 | 0.0 | 0.00 | 0.00 | 0.00 | 68 | 1021.4 |
| 20260506134559 | 31 | 238 | 0.0 | 0.0 | 0.00 | 0.00 | 0.00 | 70 | 1021.4 |
| 20260506133134 | 29 | 238 | 0.0 | 0.0 | 0.00 | 0.00 | 0.00 | 73 | 1021.3 |
| 20260506131557 | 28 | 238 | 0.0 | 0.0 | 0.00 | 0.00 | 0.00 | 75 | 1021.2 |
| 20260506130136 | 27 | 238 | 0.0 | 0.0 | 0.00 | 0.00 | 0.00 | 76 | 1021.0 |
| 20260506124554 | 26 | 238 | 0.0 | 0.0 | 0.00 | 0.00 | 0.00 | 77 | 1020.9 |
| 20260506123052 | 25 | 238 | 0.0 | 0.0 | 0.00 | 0.00 | 0.00 | 77 | 1020.7 |
| 20260506121554 | 26 | 238 | 0.0 | 0.0 | 0.00 | 0.00 | 0.00 | 80 | 1020.7 |
| 20260506120048 | 26 | 238 | 0.0 | 0.0 | 0.00 | 0.00 | 0.00 | 79 | 1020.5 |
| 20260506114535 | 26 | 238 | 0.0 | 0.0 | 0.00 | 0.00 | 0.00 | 79 | 1020.5 |
| 20260506113037 | 27 | 238 | 0.0 | 1.0 | 0.00 | 0.00 | 0.00 | 77 | 1020.4 |
| 20260506111533 | 27 | 238 | 0.0 | 0.0 | 0.00 | 0.00 | 0.00 | 74 | 1020.1 |
| 20260506110038 | 28 | 238 | 0.0 | 0.0 | 0.00 | 0.00 | 0.00 | 74 | 1019.9 |
| 20260506104528 | 28 | 238 | 0.0 | 0.0 | 0.00 | 0.00 | 0.00 | 72 | 1020.0 |
| 20260506103025 | 29 | 238 | 0.0 | 0.0 | 0.00 | 0.00 | 0.00 | 72 | 1019.9 |
| 20260506101526 | 29 | 238 | 0.0 | 1.0 | 0.00 | 0.00 | 0.00 | 71 | 1019.9 |
| 20260506100023 | 29 | 238 | 0.0 | 0.0 | 0.00 | 0.00 | 0.00 | 72 | 1019.8 |
| 20260506094506 | 29 | 238 | 0.0 | 0.0 | 0.00 | 0.00 | 0.00 | 72 | 1019.8 |
| 20260506093001 | 30 | 238 | 0.0 | 0.0 | 0.00 | 0.00 | 0.00 | 69 | 1019.7 |
| 20260506091548 | 30 | 238 | 0.0 | 0.0 | 0.00 | 0.00 | 0.00 | 69 | 1019.7 |
| 20260506090048 | 30 | 238 | 0.0 | 0.0 | 0.00 | 0.00 | 0.00 | 69 | 1019.6 |
| 20260506084551 | 30 | 235 | 0.0 | 1.0 | 0.00 | 0.00 | 0.00 | 67 | 1019.5 |
| 20260506083050 | 31 | 227 | 0.0 | 0.0 | 0.00 | 0.00 | 0.00 | 69 | 1019.5 |
| 20260506081555 | 31 | 227 | 0.0 | 0.0 | 0.00 | 0.00 | 0.00 | 67 | 1019.4 |
| 20260506073034 | 33 | 227 | 0.0 | 0.0 | 0.00 | 0.00 | 0.00 | 64 | 1019.3 |
| 20260506071520 | 34 | 227 | 0.0 | 0.0 | 0.00 | 0.00 | 0.00 | 62 | 1019.4 |
| 20260506061507 | 38 | 196 | 0.0 | 0.0 | 0.00 | 0.00 | 0.00 | 48 | 1019.1 |
| 20260506044551 | 40 | 107 | 0.0 | 0.0 | 0.00 | 0.00 | 0.00 | 44 | 1018.7 |
| 20260506043046 | 40 | 109 | 0.0 | 0.0 | 0.00 | 0.00 | 0.00 | 45 | 1018.6 |
| 20260506041544 | 40 | 111 | 0.0 | 0.0 | 0.00 | 0.00 | 0.00 | 44 | 1018.5 |
| 20260506040042 | 41 | 111 | 0.0 | 0.0 | 0.00 | 0.00 | 0.00 | 44 | 1018.2 |
| 20260506034559 | 40 | 38 | 0.0 | 1.0 | 0.00 | 0.00 | 0.00 | 43 | 1018.2 |
| 20260506033039 | 40 | 40 | 0.0 | 5.0 | 0.00 | 0.00 | 0.00 | 43 | 1018.1 |
| 20260506031540 | 41 | 35 | 0.0 | 3.0 | 0.00 | 0.00 | 0.00 | 43 | 1017.8 |
| 20260506030028 | 41 | 27 | 0.0 | 2.0 | 0.00 | 0.00 | 0.00 | 42 | 1017.6 |
| 20260506024526 | 42 | 20 | 0.0 | 10.0 | 0.00 | 0.00 | 0.00 | 40 | 1017.1 |
| 20260506023017 | 42 | 24 | 0.0 | 12.0 | 0.00 | 0.00 | 0.00 | 40 | 1016.8 |
| 20260506021516 | 43 | 53 | 1.0 | 15.0 | 0.00 | 0.00 | 0.00 | 40 | 1016.4 |
| 20260506020016 | 43 | 38 | 0.0 | 7.0 | 0.00 | 0.00 | 0.00 | 41 | 1016.2 |
| 20260506014509 | 44 | 28 | 5.0 | 17.0 | 0.00 | 0.00 | 0.00 | 40 | 1016.0 |
| 20260506013007 | 43 | 52 | 0.0 | 12.0 | 0.00 | 0.00 | 0.00 | 41 | 1015.7 |
| 20260506011511 | 44 | 26 | 4.0 | 19.0 | 0.00 | 0.00 | 0.00 | 40 | 1015.5 |
| 20260506010114 | 44 | 48 | 8.0 | 24.0 | 0.00 | 0.00 | 0.00 | 40 | 1015.3 |
| 20260506004551 | 44 | 22 | 4.0 | 17.0 | 0.00 | 0.00 | 0.00 | 42 | 1015.1 |
| 20260506003049 | 44 | 34 | 7.0 | 19.0 | 0.00 | 0.00 | 0.00 | 43 | 1014.9 |
| 20260506001555 | 44 | 58 | 6.0 | 18.0 | 0.00 | 0.00 | 0.00 | 43 | 1015.0 |
| 20260506000048 | 45 | 47 | 9.0 | 21.0 | 0.00 | 0.00 | 0.00 | 43 | 1014.8 |
| 20260505234545 | 45 | 53 | 11.0 | 22.0 | 0.00 | 0.00 | 0.00 | 43 | 1014.7 |
| 20260505233054 | 45 | 82 | 2.0 | 21.0 | 0.00 | 0.00 | 0.00 | 47 | 1014.6 |
| 20260505231545 | 45 | 45 | 9.0 | 20.0 | 0.00 | 0.00 | 0.00 | 45 | 1014.6 |
| 20260505230036 | 46 | 55 | 9.0 | 22.0 | 0.00 | 0.00 | 0.00 | 44 | 1014.3 |
| 20260505224521 | 46 | 62 | 15.0 | 25.0 | 0.00 | 0.00 | 0.00 | 45 | 1014.1 |
| 20260505223007 | 45 | 34 | 8.0 | 27.0 | 0.00 | 0.00 | 0.00 | 48 | 1013.9 |
| 20260505221508 | 47 | 17 | 11.0 | 27.0 | 0.00 | 0.00 | 0.00 | 41 | 1013.5 |
| 20260505220003 | 47 | 36 | 7.0 | 23.0 | 0.00 | 0.00 | 0.00 | 43 | 1013.5 |
| 20260505214502 | 46 | 17 | 14.0 | 30.0 | 0.00 | 0.00 | 0.00 | 47 | 1013.6 |
| 20260505213111 | 45 | 63 | 13.0 | 29.0 | 0.00 | 0.00 | 0.00 | 49 | 1013.7 |
| 20260505211556 | 47 | 53 | 13.0 | 28.0 | 0.00 | 0.00 | 0.00 | 49 | 1013.5 |
| 20260505210053 | 47 | 47 | 9.0 | 26.0 | 0.00 | 0.00 | 0.00 | 44 | 1013.4 |
| 20260505204553 | 46 | 54 | 10.0 | 25.0 | 0.00 | 0.00 | 0.00 | 48 | 1013.6 |
| 20260505203041 | 45 | 82 | 11.0 | 23.0 | 0.00 | 0.00 | 0.00 | 53 | 1013.9 |
| 20260505201550 | 44 | 55 | 6.0 | 25.0 | 0.00 | 0.00 | 0.00 | 55 | 1014.0 |
| 20260505200041 | 42 | 74 | 15.0 | 26.0 | 0.00 | 0.00 | 0.00 | 60 | 1014.3 |
| 20260505194539 | 42 | 54 | 17.0 | 32.0 | 0.00 | 0.00 | 0.00 | 62 | 1014.3 |
| 20260505193038 | 48 | 5 | 1.0 | 15.0 | 0.00 | 0.00 | 0.00 | 44 | 1013.9 |
| 20260505191538 | 45 | 94 | 0.0 | 18.0 | 0.00 | 0.00 | 0.00 | 45 | 1014.0 |
| 20260505190040 | 46 | 47 | 9.0 | 19.0 | 0.00 | 0.00 | 0.00 | 42 | 1014.2 |
| 20260505184542 | 46 | 50 | 11.0 | 21.0 | 0.00 | 0.00 | 0.00 | 41 | 1014.2 |
| 20260505183019 | 46 | 64 | 2.0 | 15.0 | 0.00 | 0.00 | 0.00 | 37 | 1014.0 |
| 20260505181519 | 46 | 71 | 0.0 | 14.0 | 0.00 | 0.00 | 0.00 | 38 | 1014.1 |
| 20260505180006 | 46 | 340 | 0.0 | 10.0 | 0.00 | 0.00 | 0.00 | 39 | 1014.2 |
| 20260505174506 | 46 | 286 | 0.0 | 12.0 | 0.00 | 0.00 | 0.00 | 39 | 1014.3 |
| 20260505173005 | 46 | 40 | 0.0 | 8.0 | 0.00 | 0.00 | 0.00 | 39 | 1014.3 |
| 20260505171505 | 45 | 101 | 0.0 | 8.0 | 0.00 | 0.00 | 0.00 | 40 | 1014.4 |
| 20260505170009 | 44 | 45 | 0.0 | 13.0 | 0.00 | 0.00 | 0.00 | 39 | 1014.5 |